CZ-6A DEB, 54547

Orbit data source: Space-Track

CZ-6A DEB, 54547 is space debris in SSO originally from a launch on Fri, 11 Nov 2022 UTC launched from the Taiyaun Space Center, China (TSC). Debris objects in space refer to the collection of defunct objects orbiting the Earth. Examples of debris include non-operational satellites, rocket bodies, and fragments generated from explosions, collisions, or faulty payload assembly.

Loading next visibility...
Identifier
54547, 2022-151KX
Orbit
SSO
Country
Flag of CNCN / PRC
Related business
Manufacturer
SAST
Mission
Spacecraft
Bus & Motor
Unknown
Mass
Unknown
Launch date (UTC)
2022-11-11 (3 years ago)
Launch vehicle
Unknown
Launch site
Taiyaun Space Center, China (TSC)
Object type
Payload
Rocket body
Debris
Shape & HBR
Unknown shape, 1.1 m
Radar Cross Section
Small (<0.1 m²)

Expand to show TLE details & history
Last TLE update: 5 hours ago

TLE from 5 hours ago
0 CZ-6A DEB
1 54547U 22151KX  26130.50983433  .00004193  00000-0  16407-2 0  9990
2 54547  98.8062 141.9457 0092038  94.9796 266.1899 14.27726751180245
Epoch: 2026-05-10T12:14Z
TLE epoch observation values (Epoch: 2026-05-10T12:14:09.686Z)
Latitude
Longitude
90.09345°
Altitude
807.257 km
Speed
7.447 km/s
True Right ascension
09h 27m 46s
True Declination
0° 00' 00"
Sunlit
Object was in daylight at epoch
Visualization orbit readout
Latitude
Unknown
Longitude
Unknown
Altitude
Unknown
Speed
Unknown
Apparent Right ascension
Unknown
Apparent Declination
Unknown
Sunlit
N/A
Visualization observer readout
Local Sidereal Time
01:08:21
Azimuth
Unknown
Elevation
Unknown
Doppler factor
Unknown
Orbital elements
Apogee altitude
862.526 km
Perigee altitude
730.458 km
Semi-major axis
7,174.629 km
Eccentricity
0.0092
Inclination
98.8062°
RAAN
141.9457°
Arg. of periapsis
94.9796°
True anomaly
265.13842°
Mean anomaly
266.1899°
Eccentric anomaly
265.66407°
Mean motion
3.57145 °/min
Orbital period
100.8 mins
BSTAR
0.0016407
Loading maneuver chart data...
Computing Atmospheric mass density...
Loading historical data...
Loading historical data...
Loading historical data...
Loading historical data...
Loading historical data...
Loading historical data...
Loading historical data...

Documentation

Showing up to 5 results
|